User: anonymous   Login
Location: Grange Verzio
(44.5000°N, 6.9833°E)
Time: 20:06:36
(UTC+00:00)
Language:

FENGYUN 1C DEB - Orbit

View from above orbital plane
View from above orbital plane
View from above satellite
View from above satellite

Ground track
Ground track

The orbit data is extracted from the following two-line orbital elements,

1 30996U 99025BCN 24056.91261488  .00002627  00000-0  10165-2 0  9990
2 30996  99.0043 292.9254 0055505  45.6270 327.7750 14.30128825881711
Epoch (UTC): 25 February 2024 21:54:09
Eccentricity: 0.0055505
inclination: 99.0043°
perigee height: 751 km
apogee height: 831 km
right ascension of ascending node: 292.9254°
argument of perigee: 45.6270°
revolutions per day: 14.30128825
mean anomaly at epoch: 327.7750°
orbit number at epoch: 88171

The dashed part of the orbit path shows where the satellite is in the earth's shadow,  

DLR